Location: Gandikunta
(16.3784°N, 80.8378°E)
Time: 19:13:04
(UTC+00:00)

SJ 16-02 - Pass Details

Date: 19 May 2025
Orbit: 587 x 596 km, 75.0° (Epoch: 23 June)

Event Time Altitude Azimuth Distance (km) Brightness Sun altitude
Exits shadow 23:35:32 - 212° (SSW) 2,422 3.9 -7.4°
Reaches altitude 10° 23:36:53 10° 218° (SW) 1,911 3.3 -7.1°
Maximum altitude 23:40:46 35° 284° (WNW) 967 2.0 -6.2°
Drops below altitude 10° 23:44:41 10° 350° (N) 1,920 4.1 -5.3°
Sets 23:47:04 0° 360° (N) 2,824 5.1 -4.8°
